Regional Weather Roundup
Issued by NWS

Home | Current Version | Previous Version | Text Only | Print | Product List | Glossary Off
Versions: 1 2 3 4 5 6 7 8 9 10 11 12 13 14 15 16 17 18 19 20 21 22 23 24 25 26 27 28 29 30 31 32 33 34 35 36 37 38 39 40 41 42 43 44 45 46 47 48 49 50

000
ASUS45 KCYS 251310
RWRWY

WYOMING REGIONAL WEATHER ROUNDUP
NATIONAL WEATHER SERVICE CHEYENNE WY
700 AM MDT SAT APR 25 2015

NOTE:  "FAIR" INDICATES FEW OR NO CLOUDS BELOW 12,000 FEET
WITH NO SIGNIFICANT WEATHER AND/OR OBSTRUCTIONS TO VISIBILITY.

WYZ001-251400-
YELLOWSTONE NATIONAL PARK

CITY           SKY/WX    TMP DP  RH WIND       PRES   REMARKS
LK YELLOWSTONE   N/A     29  26  89 CALM      29.77S
W YELLOWSTONE  NOT AVBL

$$
WYZ002>013-054>058-071-098>099-251400-
NORTHERN WYOMING

CITY           SKY/WX    TMP DP  RH WIND       PRES   REMARKS
JACKSON        CLOUDY    34  32  93 SW7       29.78R WCI  28
CODY           CLOUDY    37  36  93 N13G20    29.70R WCI  29
GREYBULL       LGT RAIN  44  38  79 NW18G26   29.64R
WORLAND        CLOUDY    46  39  76 N7        29.65R
SHERIDAN       CLOUDY    44  41  89 NW18      29.67R
BUFFALO        CLOUDY    43  40  89 NW15      29.65R
GILLETTE       FAIR      46  39  76 SE6       29.63S
HULETT         FAIR      45  34  65 E6        29.66F
NEWCASTLE      FAIR      37  37 100 CALM      29.68F

$$
WYZ014>020-022>026-101>103-251400-
CENTRAL WYOMING

CITY           SKY/WX    TMP DP  RH WIND       PRES   REMARKS
BIG PINEY      MOCLDY    32  30  92 SE3       29.79R
PINEDALE       CLOUDY    34  32  93 W5        29.81R WCI  30
DUBOIS         PTSUNNY   34  30  86 NW14G20   29.71R WCI  24
LANDER         FAIR      44  33  65 CALM      29.65R
RIVERTON       FAIR      41  33  73 NW5       29.65R
CASPER         FAIR      44  34  67 SW14      29.69R
DOUGLAS        FAIR      43  40  89 SE6       29.69S

$$
WYZ021-027>030-104>119-251400-
SOUTHERN WYOMING

CITY           SKY/WX    TMP DP  RH WIND       PRES   REMARKS
EVANSTON       FAIR      31  31 100 SW13      29.83F WCI  21
FORT BRIDGER   SUNNY     34  32  93 W18G24    29.84S WCI  23
ROCK SPRINGS   CLOUDY    36  30  79 SW16      29.82R WCI  26
DIXON          DRIZZLE   39  37  92 W12       29.87R WCI  31
RAWLINS        LGT RAIN  39  34  82 SW12      29.79R WCI  32
SARATOGA       CLOUDY    41  32  70 SW9       29.81R
LARAMIE        FAIR      38  27  64 S5        29.78S WCI  34
CHEYENNE       FAIR      40  30  67 NW5       29.75R
TORRINGTON     FAIR      40  38  93 NE5       29.69R
PINE BLUFFS    FAIR      36  32  87 CALM      29.73R

$$


USA.gov is the U.S. government's official web portal to all federal, state and local government web resources and services.